Zurück zum Katalog

STARLINK-33705

AktivKommunikationVLEO
NORAD 63651·PAYLOAD·🇺🇸 United States

Gestartet Apr 25, 2025 von Cape Canaveral Space Force Station

Loading…

Nächste Überflüge (nächste 24 Stunden)

TLE

AktuellSource: CelesTrak SupGP

Epoche: Sep 14, 2026, 13:59 UTC

1 63651C 25083T   26257.58312500 -.00048143  00000+0 -17440-2 0  2571
2 63651  43.0015  18.3411 0001689 275.6605 195.7385 15.27596715    16

Verfolge STARLINK-33705 in Echtzeit mit AllMySat

Download on the App Store